TimeCDT,TemperatureF,Dew PointF,Humidity,Sea Level PressureIn,VisibilityMPH,Wind Direction,Wind SpeedMPH,Gust SpeedMPH,PrecipitationIn,Events,Conditions,WindDirDegrees,DateUTC
12:01 AM,35.6,33.8,93,29.77,2.5,NW,9.2,-,0.01,Snow,Light Snow,320,2013-03-10 06:01:00
12:10 AM,35.6,33.8,93,29.77,4.0,NNW,8.1,-,0.01,Snow,Light Snow,330,2013-03-10 06:10:00
12:50 AM,33.8,33.8,100,29.77,9.0,North,9.2,-,0.01,Rain,Light Rain,350,2013-03-10 06:50:00
12:53 AM,34.0,33.1,96,29.79,8.0,North,11.5,-,0.01,,Overcast,360,2013-03-10 06:53:00
1:42 AM,33.8,32.0,93,29.75,10.0,North,16.1,23.0,0.01,,Overcast,350,2013-03-10 07:42:00
1:53 AM,35.1,32.0,89,29.81,10.0,NNW,8.1,-,0.01,,Overcast,340,2013-03-10 07:53:00
3:53 AM,35.1,32.0,89,29.82,10.0,North,9.2,-,0.00,,Overcast,350,2013-03-10 08:53:00
4:53 AM,35.1,30.9,85,29.80,10.0,North,12.7,-,N/A,,Overcast,360,2013-03-10 09:53:00
5:53 AM,35.1,30.0,82,29.84,10.0,North,9.2,-,N/A,,Overcast,360,2013-03-10 10:53:00
7:53 AM,35.1,28.9,78,29.85,9.0,North,17.3,25.3,0.00,,Overcast,10,2013-03-10 12:53:00
8:53 AM,35.1,28.0,76,29.93,10.0,North,10.4,20.7,N/A,,Overcast,360,2013-03-10 13:53:00
9:53 AM,35.1,28.9,78,29.92,9.0,NNE,17.3,23.0,N/A,,Overcast,20,2013-03-10 14:53:00
10:53 AM,35.1,28.9,78,29.96,9.0,North,12.7,24.2,N/A,,Overcast,10,2013-03-10 15:53:00
11:02 AM,35.6,28.4,75,29.93,9.0,North,10.4,-,N/A,,Overcast,10,2013-03-10 16:02:00
11:53 AM,34.0,28.0,79,29.93,9.0,North,16.1,-,N/A,,Overcast,360,2013-03-10 16:53:00
12:53 PM,34.0,28.0,79,29.95,10.0,North,15.0,24.2,N/A,,Overcast,10,2013-03-10 17:53:00
1:53 PM,34.0,27.0,75,29.94,10.0,North,17.3,26.5,N/A,,Overcast,10,2013-03-10 18:53:00
2:11 PM,33.8,26.6,75,29.90,10.0,North,18.4,23.0,N/A,,Overcast,10,2013-03-10 19:11:00
2:53 PM,34.0,26.1,73,29.92,10.0,North,15.0,23.0,N/A,,Overcast,10,2013-03-10 19:53:00
3:53 PM,34.0,26.1,73,29.91,10.0,NNE,13.8,26.5,N/A,,Overcast,20,2013-03-10 20:53:00
4:53 PM,33.1,25.0,72,29.90,10.0,NNE,18.4,28.8,N/A,,Overcast,20,2013-03-10 21:53:00
5:53 PM,32.0,25.0,75,29.89,10.0,North,18.4,26.5,N/A,,Overcast,10,2013-03-10 22:53:00
6:53 PM,32.0,25.0,75,29.89,10.0,North,17.3,25.3,N/A,,Overcast,10,2013-03-10 23:53:00
7:53 PM,32.0,24.1,73,29.91,10.0,North,16.1,25.3,N/A,,Overcast,10,2013-03-11 00:53:00
9:53 PM,30.9,23.0,72,29.92,10.0,North,16.1,21.9,N/A,,Overcast,10,2013-03-11 02:53:00
10:53 PM,30.9,23.0,72,29.89,10.0,North,17.3,23.0,N/A,,Overcast,10,2013-03-11 03:53:00
11:53 PM,30.0,23.0,75,29.88,10.0,North,13.8,20.7,N/A,,Overcast,10,2013-03-11 04:53:00
12:53 AM,30.0,21.9,72,29.87,10.0,North,12.7,-,N/A,,Overcast,10,2013-03-11 05:53:00